Location: Vinland
(47.7731°N, 122.6974°W)
Time: 20:15:33
(UTC+00:00)

Vanguard 1 Rocket - Pass Details

Date: 27 March 2023
Orbit: 655 x 4220 km, 34.3° (Epoch: 05 June)

Event Time Altitude Azimuth Distance (km) Brightness Sun altitude
Rises 03:35:00 0° 194° (SSW) 8,338 12.3 -11.2°
Reaches altitude 10° 03:43:04 10° 182° (S) 7,416 11.9 -12.5°
Maximum altitude 03:59:44 23° 141° (SE) 5,950 11.0 -15.1°
Enters shadow 04:07:07 19° 117° (ESE) 5,789 10.8 -16.3°
